Location: Unspecified
(35.6895°N, 139.6917°E)
Time: 02:18:36
(UTC+00:00)

ASTRO H - Pass Details

Date: 03 October 2021
Orbit: 561 x 579 km, 31.0° (Epoch: 22 October)

Event Time Altitude Azimuth Distance (km) Brightness Sun altitude
Rises 09:19:22 0° 214° (SW) 2,729 ? -12.4°
Reaches altitude 10° 09:22:27 10° 191° (S) 1,835 ? -13.0°
Maximum altitude 09:24:53 15° 156° (SSE) 1,540 ? -13.5°
Enters shadow 09:26:02 14° 137° (SE) 1,610 ? -13.7°
